Knoxville, TN

9:16 AM EST on November 24, 2017 (GMT -0500)
McGhee Tyson

Weather History for KTYS - May, 2013

Change the Weather History Date:

Tuesday, May 14, 2013

  Actual Average Record
Temperature  
Mean Temperature 60 °F 67 °F  
Max Temperature 78 °F 78 °F 91 °F (1916)
Min Temperature 41 °F 56 °F 39 °F (1917)
Degree Days  
Heating Degree Days 5 2  
Month to date heating degree days 60 39  
Since 1 July heating degree days 3616 3614  
Cooling Degree Days 0 4  
Month to date cooling degree days 10 36  
Year to date cooling degree days 41 73  
Growing Degree Days 10 (Base 50)    
Moisture  
Dew Point 45 °F    
Average Humidity 63    
Maximum Humidity 89    
Minimum Humidity 37    
Precipitation  
Precipitation 0.00 in 0.16 in 1.63 in (2012)
Month to date precipitation 2.02 2.12  
Year to date precipitation 29.92 19.05  
Snow  
Snow 0.00 in 0.00 in - ()
Month to date snowfall 0.0 0.0  
Since 1 July snowfall 3.8 6.5  
Snow Depth 0.00 in    
Sea Level Pressure  
Sea Level Pressure 30.14 in    
Wind  
Wind Speed 10 mph (SSW)    
Max Wind Speed 24 mph    
Max Gust Speed 31 mph    
Visibility 10 miles    
Events      
T = Trace of Precipitation, MM = Missing Value Source: NWS Daily Summary

Daily Weather History Graph

Daily Weather History Graph

Search for Another Location

Airport or City:

Trip Planner

Search our weather history database for the weather conditions in past years. The results will help you decide how hot, cold, wet, or windy it might be!

Date:

Astronomy

May. 14, 2013 Rise Set
Actual Time 6:31 AM EDT 8:33 PM EDT
Civil Twilight 6:02 AM EDT 9:02 PM EDT
Nautical Twilight 5:28 AM EDT 9:36 PM EDT
Astronomical Twilight 4:51 AM EDT 10:14 PM EDT
Moon 10:09 AM EDT (5/14) No Moon Set
Length of Visible Light 14h 59m
Length of Day
14h 02m
Waxing Crescent, 19% of the Moon is Illuminated
May 14
Waxing Crescent
May 18
First Quarter
May 25
Full
May 31
Last Quarter
Jun 8
New

Hourly Weather History & Observations

Time (EDT) Temp. Windchill Dew Point Humidity Pressure Visibility Wind Dir Wind Speed Gust Speed Precip Events Conditions
12:53 AM 48.0 °F - 37.9 °F 68% 30.20 in 10.0 mi Calm Calm - N/A   Clear
1:53 AM 48.9 °F - 37.0 °F 64% 30.20 in 10.0 mi Calm Calm - N/A   Clear
2:53 AM 46.9 °F - 37.0 °F 68% 30.20 in 10.0 mi Calm Calm - N/A   Clear
3:53 AM 46.0 °F - 37.0 °F 71% 30.19 in 10.0 mi Calm Calm - N/A   Clear
4:53 AM 46.0 °F - 37.0 °F 71% 30.19 in 10.0 mi Calm Calm - N/A   Clear
5:53 AM 42.1 °F - 37.9 °F 85% 30.21 in 10.0 mi Calm Calm - N/A   Partly Cloudy
6:53 AM 42.1 °F 39.2 °F 39.0 °F 89% 30.22 in 10.0 mi NE 4.6 mph - N/A   Scattered Clouds
7:53 AM 46.9 °F - 41.0 °F 80% 30.24 in 10.0 mi Calm Calm - N/A   Scattered Clouds
8:53 AM 53.1 °F - 41.0 °F 64% 30.24 in 10.0 mi Calm Calm - N/A   Partly Cloudy
9:53 AM 55.9 °F - 39.9 °F 55% 30.23 in 10.0 mi SSW 3.5 mph - N/A   Partly Cloudy
10:53 AM 62.1 °F - 44.1 °F 52% 30.22 in 10.0 mi South 4.6 mph - N/A   Partly Cloudy
11:53 AM 68.0 °F - 41.0 °F 37% 30.20 in 10.0 mi SW 10.4 mph - N/A   Partly Cloudy
12:53 PM 70.0 °F - 44.1 °F 39% 30.18 in 10.0 mi SW 8.1 mph 19.6 mph N/A   Scattered Clouds
1:53 PM 73.0 °F - 48.0 °F 41% 30.15 in 10.0 mi SW 16.1 mph 23.0 mph N/A   Partly Cloudy
2:53 PM 75.0 °F - 48.0 °F 38% 30.12 in 10.0 mi SW 18.4 mph - N/A   Partly Cloudy
3:53 PM 75.9 °F - 50.0 °F 40% 30.09 in 10.0 mi SSW 19.6 mph 26.5 mph N/A   Partly Cloudy
4:53 PM 77.0 °F - 51.1 °F 40% 30.06 in 10.0 mi SSW 18.4 mph - N/A   Partly Cloudy
6:53 PM 75.9 °F - 52.0 °F 43% 30.03 in 10.0 mi SW 17.3 mph 24.2 mph N/A   Clear
7:53 PM 73.9 °F - 53.1 °F 48% 30.03 in 10.0 mi SW 16.1 mph - N/A   Clear
8:53 PM 71.1 °F - 53.1 °F 53% 30.03 in 10.0 mi SSW 12.7 mph - N/A   Clear
9:53 PM 70.0 °F - 53.1 °F 55% 30.04 in 10.0 mi SSW 16.1 mph - N/A   Clear
10:53 PM 69.1 °F - 53.1 °F 57% 30.04 in 10.0 mi SSW 13.8 mph - N/A   Clear
11:53 PM 69.1 °F - 53.1 °F 57% 30.04 in 10.0 mi SW 15.0 mph - N/A   Clear